Weather History for KVQQ - April, 2013

Change the Weather History Date:

Friday, April 12, 2013

  Actual Average (KJAX) Record (KJAX)
Temperature  
Mean Temperature 78 °F 66 °F  
Max Temperature 86 °F 79 °F 92 °F (1965)
Min Temperature 71 °F 54 °F 41 °F (1989)
Degree Days  
Heating Degree Days 0 2  
Month to date heating degree days 32  
Since 1 July heating degree days 1321  
Cooling Degree Days 14 3  
Month to date cooling degree days 34  
Year to date cooling degree days 117  
Growing Degree Days 28 (Base 50)    
Moisture  
Dew Point 71 °F    
Average Humidity 92    
Maximum Humidity 100    
Minimum Humidity 51    
Precipitation  
Precipitation 0.01 in 0.10 in 1.70 in (1882)
Month to date precipitation 1.20  
Year to date precipitation 11.64  
Snow  
Snow 0.00 in 0.00 in 0.00 in (2002)
Month to date snowfall 0.0  
Since 1 July snowfall T  
Snow Depth -    
Sea Level Pressure  
Sea Level Pressure 29.83 in    
Wind  
Wind Speed 5 mph (South)    
Max Wind Speed 23 mph    
Max Gust Speed 38 mph    
Visibility 8 miles    
Events Rain    
T = Trace of Precipitation, MM = Missing Value Source: NWS Daily Summary

Daily Weather History Graph

Daily Weather History Graph

Search for Another Location

Airport or City:

Trip Planner

Search our weather history database for the weather conditions in past years. The results will help you decide how hot, cold, wet, or windy it might be!

Date:

Astronomy

Apr. 12, 2013 Rise Set
Actual Time 7:03 AM EDT 7:53 PM EDT
Civil Twilight 6:39 AM EDT 8:17 PM EDT
Nautical Twilight 6:10 AM EDT 8:46 PM EDT
Astronomical Twilight 5:40 AM EDT 9:16 PM EDT
Moon 8:21 AM EDT (4/12) 10:12 PM EDT (4/12)
Length of Visible Light 13h 38m
Length of Day
12h 49m
Waxing Crescent, 5% of the Moon is Illuminated
Apr 12
Waxing Crescent
Apr 18
First Quarter
Apr 25
Full
May 2
Last Quarter
May 9
New

Hourly Weather History & Observations

Time (EDT) Temp. Heat Index Dew Point Humidity Pressure Visibility Wind Dir Wind Speed Gust Speed Precip Events Conditions
12:15 AM 71.6 °F - 71.6 °F 100% 29.88 in 8.0 mi Calm Calm - N/A   Partly Cloudy
12:35 AM 71.6 °F - 71.6 °F 100% 29.88 in 7.0 mi Calm Calm - N/A   Mostly Cloudy
12:55 AM 71.6 °F - 71.6 °F 100% 29.89 in 7.0 mi Calm Calm - N/A   Mostly Cloudy
1:15 AM 71.6 °F - 71.6 °F 100% 29.90 in 8.0 mi SSE 3.5 mph - N/A   Mostly Cloudy
1:35 AM 71.6 °F - 71.6 °F 100% 29.89 in 7.0 mi SSE 3.5 mph - N/A   Mostly Cloudy
2:15 AM 71.6 °F - 71.6 °F 100% 29.89 in 5.0 mi South 3.5 mph - N/A Rain Light Rain
2:35 AM 71.6 °F - 71.6 °F 100% 29.88 in 6.0 mi SSE 3.5 mph - 0.01 in   Mostly Cloudy
2:55 AM 71.6 °F - 71.6 °F 100% 29.87 in 7.0 mi Calm Calm - 0.01 in   Mostly Cloudy
3:15 AM 71.6 °F - 71.6 °F 100% 29.87 in 8.0 mi Calm Calm - N/A   Overcast
3:35 AM 71.6 °F - 71.6 °F 100% 29.85 in 8.0 mi SSE 3.5 mph - N/A   Mostly Cloudy
3:55 AM 71.6 °F - 71.6 °F 100% 29.84 in 9.0 mi SSE 5.8 mph - N/A   Partly Cloudy
4:15 AM 71.6 °F - 71.6 °F 100% 29.83 in 9.0 mi SSE 6.9 mph - N/A   Clear
4:35 AM 71.6 °F - 71.6 °F 100% 29.81 in 9.0 mi SSE 5.8 mph - N/A   Partly Cloudy
4:55 AM 71.6 °F - 71.6 °F 100% 29.81 in 9.0 mi South 9.2 mph - N/A   Mostly Cloudy
5:15 AM 71.6 °F - 71.6 °F 100% 29.79 in 10.0 mi South 5.8 mph 17.3 mph N/A   Overcast
5:35 AM 71.6 °F - 71.6 °F 100% 29.79 in 10.0 mi South 8.1 mph - N/A   Overcast
5:55 AM 71.6 °F - 71.6 °F 100% 29.77 in 9.0 mi South 8.1 mph - N/A   Partly Cloudy
6:15 AM 71.6 °F - 71.6 °F 100% 29.77 in 9.0 mi South 6.9 mph - N/A   Clear
6:35 AM 71.6 °F - 71.6 °F 100% 29.78 in 9.0 mi South 6.9 mph - N/A   Partly Cloudy
6:50 AM 71.6 °F - 71.6 °F 100% 29.77 in 7.0 mi South 8.1 mph - N/A   Unknown
7:50 AM 73.4 °F - 71.6 °F 94% 29.80 in 7.0 mi South 12.7 mph - N/A   Overcast
8:50 AM 73.4 °F - 71.6 °F 94% 29.82 in 7.0 mi South 9.2 mph - N/A   Overcast
10:50 AM 80.6 °F 84.6 °F 71.6 °F 74% 29.82 in 10.0 mi SSW 17.3 mph 23.0 mph N/A   Scattered Clouds
1:50 PM 84.2 °F 88.4 °F 69.8 °F 62% 29.82 in 10.0 mi SW 23.0 mph 31.1 mph N/A   Mostly Cloudy
2:50 PM 86.0 °F 88.2 °F 66.2 °F 51% 29.81 in 10.0 mi SW 23.0 mph 38.0 mph N/A   Mostly Cloudy
3:50 PM 86.0 °F 88.2 °F 66.2 °F 51% 29.80 in 10.0 mi SW 17.3 mph 28.8 mph N/A   Mostly Cloudy
4:50 PM 86.0 °F 88.2 °F 66.2 °F 51% 29.80 in 10.0 mi SW 19.6 mph 29.9 mph N/A   Mostly Cloudy
5:50 PM - - - N/A% 29.82 in 10.0 mi WSW 23.0 mph 32.2 mph N/A   Mostly Cloudy
6:50 PM - - - N/A% 29.83 in 10.0 mi WSW 9.2 mph - N/A   Mostly Cloudy
7:50 PM - - - N/A% 29.84 in 10.0 mi West 5.8 mph - N/A   Scattered Clouds
8:15 PM - - - N/A% - - North - - N/A   Unknown
8:35 PM - - - N/A% - - North - - N/A   Unknown
8:55 PM - - - N/A% - - North - - N/A   Unknown
9:15 PM - - - N/A% - - North - - N/A   Unknown
9:35 PM - - - N/A% - - North - - N/A   Unknown
9:55 PM - - - N/A% - - North - - N/A   Unknown
10:15 PM - - - N/A% - - North - - N/A   Unknown
10:35 PM - - - N/A% - - North - - N/A   Unknown
10:55 PM - - - N/A% - - North - - N/A   Unknown
11:15 PM - - - N/A% - - North - - N/A   Unknown
11:35 PM - - - N/A% - - North - - N/A   Unknown
11:55 PM - - - N/A% - - North - - N/A   Unknown